This demonstration page uses our WeatherBlox Daily Observations layout. Learn more.

Left ArrowRight Arrow

44.89941, -97.11507

Hourly Observations for April 27, 2016

Temp ( °F °C ) Dew Point ( °F °C ) Humidity (%) Winds ( mph kmh ) Pressure ( in mb ) Visibility ( mi km ) Precip ( " mm )
12:53 am 00:53 Cloudy 43 6.1 40 4.4 89 89 E 10 17 29.91 1013 8 13 0.00 0.00
1:53 am 01:53 Cloudy 43 6.1 39 3.9 86 86 E 13 20 29.90 1013 10 16 0.00 0.00
2:53 am 02:53 Cloudy 43 6.1 39 3.9 86 86 ENE 17 28 29.87 1011 10 16 0.00 0.00
3:53 am 03:53 Cloudy 43 6.1 39 3.9 86 86 E 14 22 29.83 1010 10 16 0.00 0.00
4:53 am 04:53 Cloudy 42 5.6 39 3.9 89 89 E 17 28 29.82 1010 10 16 0.00 0.00
5:53 am 05:53 Cloudy 41 5 37 2.8 86 86 E 20 31 29.83 1010 10 16 0.00 0.00
6:53 am 06:53 Cloudy 40 4.4 35 1.7 83 83 E 20 31 29.81 1010 10 16 0.00 0.00
7:06 am 07:06 Cloudy 40 4.4 35 1.7 83 83 ENE 20 31 29.83 1010 10 16 0.00 0.00
7:33 am 07:33 Cloudy 39 3.9 35 1.7 86 86 E 18 30 29.83 1010 10 16 0.00 0.00
7:53 am 07:53 Cloudy 40 4.4 34 1.1 79 79 E 18 30 29.79 1009 10 16 0.00 0.00
8:36 am 08:36 Cloudy 40 4.4 33 0.6 77 77 ENE 22 35 29.80 1009 10 16 0.00 0.00
8:53 am 08:53 Cloudy 40 4.4 32 0 73 73 ENE 20 31 29.78 1008 10 16 0.00 0.00
9:53 am 09:53 Cloudy with Light Rain 40 4.4 30 -1.1 68 68 ENE 17 28 29.76 1008 10 16 0.00 0.03
10:53 am 10:53 Cloudy 40 4.4 31 -0.6 70 70 E 17 28 29.79 1009 10 16 0.00 0.03
11:53 am 11:53 Cloudy with Light Rain 41 5 32 0 70 70 ENE 22 35 29.76 1008 10 16 0.00 0.03
12:53 pm 12:53 Cloudy with Light Rain 40 4.4 34 1.1 79 79 ENE 24 39 29.74 1007 7 11 0.06 1.52
1:53 pm 13:53 Cloudy with Light Rain 40 4.4 34 1.1 79 79 E 24 39 29.75 1008 8 13 0.04 1.02
2:53 pm 14:53 Cloudy with Light Rain 40 4.4 33 0.6 77 77 E 22 35 29.77 1008 9 14 0.03 0.76
3:53 pm 15:53 Cloudy with Light Rain 39 3.9 35 1.7 86 86 ENE 25 41 29.78 1008 6 10 0.05 1.27
4:35 pm 16:35 Cloudy with Light Rain 38 3.3 34 1.1 86 86 ENE 20 31 29.77 1008 7 11 0.02 0.51
4:48 pm 16:48 Cloudy 37 3 34 1 87 87 E 24 39 29.80 1009 10 16 0.04 1.02
4:53 pm 16:53 Cloudy 38 3.3 34 1.1 86 86 E 25 41 29.79 1009 10 16 0.04 1.02
5:01 pm 17:01 Cloudy 38 3.3 34 1.1 86 86 E 24 39 29.80 1009 10 16 0.00 0.00
5:40 pm 17:40 Cloudy 39 3.9 35 1.7 86 86 E 17 28 29.83 1010 10 16 0.00 0.00
5:53 pm 17:53 Cloudy 39 3.9 35 1.7 86 86 E 20 31 29.81 1010 10 16 0.00 0.00
6:29 pm 18:29 Cloudy with Light Rain 40 4.4 35 1.7 83 83 E 20 31 29.83 1010 10 16 0.00 0.03
6:53 pm 18:53 Cloudy 40 4.4 35 1.7 83 83 E 17 28 29.82 1010 10 16 0.00 0.03
7:53 pm 19:53 Cloudy 40 4.4 36 2.2 86 86 E 16 26 29.83 1010 10 16 0.00 0.00
8:25 pm 20:25 Cloudy 40 4.4 36 2.2 86 86 ENE 17 28 29.85 1011 10 16 0.00 0.00
8:53 pm 20:53 Cloudy 40 4.4 36 2.2 86 86 E 18 30 29.84 1011 10 16 0.00 0.00
9:53 pm 21:53 Cloudy with Light Rain 40 4.4 36 2.2 86 86 E 22 35 29.85 1011 10 16 0.01 0.25
10:53 pm 22:53 Cloudy with Light Rain 40 4.4 37 2.8 89 89 ENE 17 28 29.87 1011 10 16 0.04 1.02
11:53 pm 23:53 Cloudy 41 5 36 2.2 82 82 NE 14 22 29.87 1012 10 16 0.00 0.03

Powered by AerisWeather